EHI
0 0 0 0 0 0 0 0 0 0 0 0 0 0 0 0 0 0 0 0 0 0 0 0 0 0 0 0 6 19 21 8 0 0 0 0 0 0
0 0 0 0 0 0 0 0 0 0 0 0 0 0 0 0 0 0 0 0 0 0 0 0 0 0 0 0 3 8 8 3 0 0 0 0 0 0
0 0 0 0 0 0 0 0 0 0 0 0 0 0 0 0 0 0 0 0 0 0 0 0 0 0 0 0 0 0 0 0 0 0 0 0 0 0
0 0 0 0 0 0 0 0 0 0 0 0 0 0 0 0 0 0 0 0 0 0 0 0 0 0 0 0 0 0 0 0 0 0 0 0 0 0
0 0 0 0 0 0 0 0 0 0 0 0 0 0 0 0 0 0 0 0 0 0 0 0 0 0 0 0 0 0 0 0 0 0 0 0 0 0
0 0 0 0 0 0 0 0 0 0 0 0 0 0 0 0 0 0 0 0 0 0 0 0 0 0 0 0 0 0 0 0 0 0 0 0 0 0
0 0 0 0 0 0 0 0 0 0 0 0 0 0 0 0 0 0 0 0 0 0 0 0 0 0 0 0 0 0 0 0 0 0 0 0 0 0
0 0 0 0 0 0 0 0 0 0 0 0 0 0 0 0 0 0 0 0 0 0 0 0 0 0 0 0 0 0 0 0 0 0 0 0 0 0
0 0 0 0 0 0 0 0 0 0 0 0 0 0 0 0 0 0 0 0 0 0 0 0 0 0 0 0 0 0 0 0 0 0 0 0 0 0
0 0 0 0 0 0 0 0 0 0 0 0 0 0 0 0 0 0 0 0 0 0 0 0 0 0 0 0 0 0 0 0 0 0 0 0 0 0
0 0 0 0 0 0 0 0 0 0 0 0 0 0 0 0 0 0 0 0 0 0 0 0 0 0 0 0 0 0 0 0 0 0 0 0 0 0
0 0 0 0 0 0 0 0 0 0 0 0 0 0 0 0 0 0 0 0 0 0 0 0 0 0 0 0 0 0 0 0 0 0 0 0 0 0
0 0 0 0 0 0 0 0 0 0 0 0 0 0 0 0 0 0 0 0 0 0 0 0 0 0 0 0 0 0 0 0 0 0 0 0 0 0
0 0 0 0 0 0 0 0 0 0 0 0 0 0 0 0 0 0 0 0 0 0 0 0 0 0 0 0 0 0 0 0 0 0 0 0 0 0
0 0 0 0 0 0 0 0 0 0 0 0 0 0 0 0 0 0 0 0 0 0 0 0 0 0 0 0 0 0 0 0 0 0 0 0 0 0
0 0 0 0 0 0 0 0 0 0 0 0 0 0 0 0 0 0 0 0 0 0 0 0 0 0 0 0 0 0 0 0 0 0 0 0 0 0
0 0 0 0 0 0 0 0 0 0 0 0 0 0 0 0 0 0 0 0 0 0 0 0 0 0 0 0 0 0 0 0 0 0 0 0 0 0
0 0 0 0 0 0 0 0 0 0 0 0 0 0 0 0 0 0 0 0 0 0 0 0 0 0 0 0 0 0 0 0 0 0 0 0 0 0
0 0 0 0 0 0 0 0 0 0 0 0 0 0 0 0 0 0 0 0 0 0 0 0 0 0 0 0 0 0 0 0 0 0 0 0 0 0
0 0 0 0 0 0 0 0 0 0 0 0 0 0 0 0 0 0 0 0 0 0 0 0 0 0 0 0 0 0 0 0 0 0 0 0 0 0
0 0 0 0 0 0 0 0 0 0 0 0 0 0 0 0 0 0 0 0 0 0 0 0 0 0 0 0 0 0 0 0 0 0 0 0 0 0
0 0 0 0 0 0 0 0 0 0 0 0 0 0 0 0 0 0 0 0 0 0 0 0 0 0 0 0 0 0 0 0 0 0 0 0 0 0
0 0 0 0 0 0 0 0 0 0 0 0 0 0 0 0 0 0 0 0 0 0 0 0 0 0 0 0 0 0 0 0 0 0 0 0 0 0
Wind_Speed
12 11 9 9 9 10 10 11 12 13 14 9 5 4 4 2 5 5 5 9 11 11 11 11 11 13 14 16 18 21 22 21 21 22 22 20 19 19
11 11 10 9 10 10 11 11 12 13 13 8 6 7 8 6 2 1 3 7 11 12 13 13 13 13 14 15 17 19 20 21 24 25 24 24 24 22
11 11 12 12 11 10 10 11 12 12 14 10 8 8 7 7 4 2 2 3 5 13 15 16 15 14 14 14 16 19 23 26 26 27 27 27 26 24
11 12 13 11 14 12 10 11 11 10 9 9 7 6 7 5 4 4 3 3 3 8 14 15 15 15 15 16 19 23 26 27 27 26 27 27 26 24
10 12 12 13 13 11 12 10 9 7 5 5 6 5 4 4 4 3 3 3 3 5 10 13 14 15 16 19 22 24 26 27 26 25 25 24 24 24
9 10 12 13 13 13 10 8 7 6 4 5 5 4 4 4 3 3 3 3 2 2 3 5 12 16 20 23 24 24 25 27 27 26 24 22 21 21
7 10 13 17 20 17 13 13 10 4 3 4 4 3 3 2 3 3 4 3 1 2 4 4 7 9 12 20 24 26 27 28 27 26 25 23 20 19
7 10 13 15 20 23 25 25 23 14 8 5 3 3 3 3 3 3 4 5 3 2 5 5 7 9 8 9 21 27 28 27 26 26 26 24 21 19
9 10 11 14 17 14 19 23 22 26 23 12 9 7 7 6 7 6 5 5 4 2 6 6 7 9 8 15 25 26 27 26 25 25 25 24 22 20
11 12 12 13 16 16 14 15 15 17 19 13 10 10 11 10 6 6 3 6 5 2 4 8 7 9 10 12 24 25 25 25 24 25 24 23 22 21
11 14 15 14 24 25 16 14 14 15 19 24 23 21 23 25 18 6 2 10 8 2 2 6 7 9 10 10 16 25 25 25 24 24 24 23 21 18
9 12 19 22 26 25 15 14 14 14 15 16 17 20 17 20 26 15 8 5 9 5 1 6 6 8 9 7 8 9 14 21 23 22 21 19 17 9
8 8 11 24 26 26 21 15 18 15 12 13 13 13 14 13 15 15 14 7 4 5 2 4 6 5 9 7 6 7 8 9 10 12 14 16 14 10
8 7 11 23 24 25 19 22 25 18 10 11 11 13 13 13 12 13 15 14 12 10 8 6 6 6 9 8 7 5 7 6 6 7 6 12 13 13
8 17 19 22 20 16 23 25 19 12 11 11 12 11 11 12 12 11 13 13 16 17 15 12 9 7 7 8 9 7 6 5 5 5 5 5 4 3
9 14 18 20 17 18 17 15 12 12 12 11 10 10 9 10 12 12 12 12 12 15 18 18 14 11 10 10 10 9 7 7 5 5 5 4 3 3
8 7 8 9 10 10 10 10 10 11 11 10 10 10 10 11 11 11 11 11 12 12 12 12 14 15 16 12 10 10 10 9 6 4 4 4 3 2
10 5 7 8 9 10 9 9 9 10 10 10 9 10 10 10 10 10 10 10 11 11 11 9 6 8 10 13 15 9 8 6 4 4 3 4 3 3
6 4 4 5 5 6 6 6 6 7 6 7 7 8 8 8 9 9 9 9 9 10 10 9 8 6 8 8 8 11 6 4 3 3 4 3 2 1
3 3 3 4 3 4 5 4 4 4 4 4 5 5 6 6 7 7 7 8 8 8 8 9 9 8 6 5 5 4 9 5 4 4 3 3 2 4
4 4 3 3 3 3 3 4 4 3 3 3 4 4 4 4 5 6 6 10 8 7 7 6 5 8 3 4 6 4 3 6 4 2 2 2 2 2
4 4 4 4 3 3 3 3 3 3 4 3 3 3 3 3 3 4 4 4 4 4 4 3 4 5 4 5 5 3 2 2 3 2 3 4 1 0
4 4 3 4 3 2 2 3 3 3 3 3 3 2 2 2 2 2 3 3 3 3 3 3 3 3 3 3 3 2 1 0 1 1 2 3 6 8
Wind_Direction
300 295 293 291 285 277 267 256 260 272 281 284 282 294 323 270 207 195 202 207 214 222 224 223 221 217 214 210 200 193 187 178 167 163 160 159 151 139
298 298 300 296 290 280 267 257 249 254 265 282 290 309 328 327 286 184 219 214 217 224 231 233 227 220 216 210 200 189 178 169 163 161 155 148 139 133
309 312 306 301 294 287 275 260 247 243 252 265 273 282 294 307 307 292 268 231 220 221 228 231 226 220 215 208 191 175 166 161 159 156 152 147 141 138
319 316 313 309 300 291 282 274 261 245 246 257 264 264 259 262 251 236 243 230 212 220 223 223 219 216 209 195 176 165 159 155 153 151 147 143 141 140
315 318 318 314 309 302 289 276 271 264 257 266 269 258 252 244 233 225 227 220 203 212 216 212 204 193 180 169 160 155 149 145 143 140 138 138 138 137
325 329 325 324 330 328 322 314 285 265 256 262 266 260 254 245 214 202 209 203 184 176 167 163 164 158 154 150 145 140 136 134 133 132 131 130 130 131
340 348 345 354 2 1 2 357 348 325 285 262 262 263 257 243 221 193 190 168 130 160 138 129 135 134 137 135 130 129 128 127 126 126 124 120 119 122
10 9 0 1 12 9 13 17 18 19 13 2 352 347 345 321 290 223 180 162 176 183 133 119 114 112 113 115 124 123 122 121 121 122 120 116 114 113
22 19 13 7 22 12 10 16 17 24 32 31 23 11 352 338 322 279 213 166 149 153 129 107 102 109 111 119 119 119 120 121 122 122 121 121 120 119
21 21 19 9 23 24 13 16 17 17 20 24 23 18 7 356 329 289 262 125 98 59 118 111 105 105 109 117 121 121 121 121 122 123 123 123 124 125
17 15 19 17 24 28 17 17 20 15 13 20 24 26 24 21 21 4 204 158 143 107 39 103 112 99 82 86 107 114 118 120 123 125 126 126 124 118
13 8 14 23 23 30 23 16 24 17 9 9 15 16 19 21 26 22 344 186 146 131 46 112 125 112 92 52 63 94 108 113 115 117 119 122 122 114
9 2 8 22 24 28 29 25 27 26 16 13 13 14 15 19 24 23 13 5 96 100 63 102 113 93 106 108 62 54 84 94 94 100 101 103 108 114
1 355 9 23 24 25 28 27 28 26 21 21 19 18 14 12 14 23 25 27 38 55 47 61 92 108 118 113 108 88 80 84 93 92 84 91 90 95
5 14 19 23 23 22 25 27 24 22 21 24 22 18 13 10 13 20 24 28 41 43 42 51 78 91 94 116 123 128 106 83 82 90 87 87 88 91
11 13 19 22 26 24 25 24 20 24 25 21 18 14 13 19 24 24 26 23 39 43 40 44 53 76 94 98 109 113 111 117 107 93 94 94 94 90
27 15 14 14 17 19 20 22 21 20 24 21 17 17 20 25 31 32 33 33 40 45 44 47 56 66 69 78 92 96 101 99 95 88 90 86 67 86
31 18 20 17 15 14 16 17 20 22 20 23 22 19 21 24 31 37 42 41 42 40 36 29 52 76 75 56 45 85 92 94 90 80 80 89 64 35
25 7 7 7 8 8 7 7 13 17 14 18 22 19 22 27 33 38 43 49 51 47 38 30 28 60 89 92 51 39 68 72 71 69 68 76 75 7
3 2 359 356 358 0 359 358 355 5 9 15 19 19 22 29 37 40 42 48 56 59 52 43 43 48 68 92 98 59 48 59 57 58 49 37 354 313
346 350 350 351 351 351 351 350 349 354 7 17 25 23 22 31 37 36 40 56 58 58 63 53 38 46 54 74 86 79 49 69 85 96 78 41 355 341
332 334 334 335 339 345 340 339 342 348 1 11 12 22 22 30 40 46 45 50 50 49 59 55 33 39 52 78 90 87 62 18 353 296 216 202 172 96
306 305 307 312 317 324 337 340 339 336 345 351 352 1 14 21 24 34 38 50 59 50 48 48 36 45 60 82 94 93 74 15 49 38 345 286 253 256